Pittsfield, IL

4:18 AM CDT on May 26, 2017 (GMT -0500)
Pittsfield Penstone Municipal

Weather History for KPPQ - March, 2013

Change the Weather History Date:

Thursday, March 28, 2013

  Actual Average (KUIN) Record (KUIN)
Temperature  
Mean Temperature 38 °F -  
Max Temperature 47 °F 58 °F 84 °F (1985)
Min Temperature 30 °F 39 °F 17 °F (1955)
Degree Days  
Heating Degree Days 26    
Moisture  
Dew Point 29 °F    
Average Humidity 67    
Maximum Humidity 83    
Minimum Humidity 50    
Precipitation  
Precipitation 0.00 in - - ()
Sea Level Pressure  
Sea Level Pressure 30.32 in    
Wind  
Wind Speed 5 mph (East)    
Max Wind Speed 13 mph    
Max Gust Speed -    
Visibility 10 miles    
Events      
Averages and records for this station are not official NWS values.
T = Trace of Precipitation, MM = Missing Value Source: NWS Daily Summary

Daily Weather History Graph

Daily Weather History Graph

Search for Another Location

Airport or City:

Trip Planner

Search our weather history database for the weather conditions in past years. The results will help you decide how hot, cold, wet, or windy it might be!

Date:

Astronomy

Mar. 28, 2013 Rise Set
Actual Time 6:53 AM CDT 7:23 PM CDT
Civil Twilight 6:26 AM CDT 7:50 PM CDT
Nautical Twilight 5:54 AM CDT 8:22 PM CDT
Astronomical Twilight 5:21 AM CDT 8:55 PM CDT
Moon 9:15 PM CDT (3/28) 7:21 AM CDT (3/28)
Length of Visible Light 13h 24m
Length of Day
12h 30m
Full, 98% of the Moon is Illuminated
Mar 28
Full
Apr 2
Last Quarter
Apr 10
New
Apr 18
First Quarter
Apr 25
Full

Hourly Weather History & Observations

Time (CDT) Temp. Windchill Dew Point Humidity Pressure Visibility Wind Dir Wind Speed Gust Speed Precip Events Conditions
12:15 AM 33.8 °F 30.8 °F 25.2 °F 71% 30.34 in 10.0 mi East 3.5 mph - N/A   Clear
12:35 AM 33.8 °F 30.8 °F 25.3 °F 71% 30.34 in 10.0 mi East 3.5 mph - N/A   Clear
12:55 AM 33.1 °F 28.7 °F 25.3 °F 73% 30.34 in 10.0 mi ESE 4.6 mph - N/A   Clear
1:15 AM 33.4 °F 30.4 °F 25.2 °F 72% 30.34 in 10.0 mi East 3.5 mph - N/A   Clear
1:35 AM 33.1 °F - 24.8 °F 72% 30.35 in 10.0 mi Calm Calm - N/A   Scattered Clouds
1:55 AM 32.9 °F - 25.5 °F 74% 30.34 in 10.0 mi Calm Calm - N/A   Scattered Clouds
2:15 AM 32.7 °F - 25.3 °F 74% 30.34 in 10.0 mi Calm Calm - N/A   Clear
2:35 AM 32.2 °F 28.9 °F 25.7 °F 77% 30.35 in 10.0 mi SSW 3.5 mph - N/A   Clear
2:55 AM 30.9 °F - 25.5 °F 80% 30.34 in 10.0 mi Calm Calm - N/A   Mostly Cloudy
3:15 AM 32.0 °F - 25.3 °F 76% 30.34 in 10.0 mi Calm Calm - N/A   Mostly Cloudy
3:35 AM 31.8 °F - 27.1 °F 83% 30.33 in 10.0 mi Calm Calm - N/A   Scattered Clouds
3:55 AM 32.0 °F - 26.4 °F 80% 30.34 in 10.0 mi Calm Calm - N/A   Scattered Clouds
4:15 AM 32.0 °F - 26.6 °F 80% 30.33 in 10.0 mi Calm Calm - N/A   Scattered Clouds
4:35 AM 32.0 °F - 26.2 °F 79% 30.34 in 10.0 mi Calm Calm - N/A   Mostly Cloudy
4:55 AM 32.0 °F 28.7 °F 26.1 °F 79% 30.34 in 10.0 mi NE 3.5 mph - N/A   Scattered Clouds
5:15 AM 31.8 °F - 26.2 °F 80% 30.34 in 10.0 mi Calm Calm - N/A   Clear
5:35 AM 31.8 °F - 26.6 °F 81% 30.34 in 10.0 mi Calm Calm - N/A   Scattered Clouds
5:55 AM 31.8 °F - 26.1 °F 79% 30.34 in 10.0 mi Calm Calm - N/A   Scattered Clouds
6:15 AM 31.6 °F - 26.2 °F 80% 30.35 in 10.0 mi Calm Calm - N/A   Mostly Cloudy
6:35 AM 31.1 °F - 26.6 °F 83% 30.35 in 10.0 mi Calm Calm - N/A   Mostly Cloudy
6:55 AM 31.1 °F 27.7 °F 26.4 °F 83% 30.35 in 10.0 mi East 3.5 mph - N/A   Overcast
7:15 AM 31.1 °F 27.7 °F 26.4 °F 83% 30.36 in 10.0 mi East 3.5 mph - N/A   Mostly Cloudy
7:35 AM 31.8 °F 27.3 °F 25.7 °F 78% 30.35 in 10.0 mi East 4.6 mph - N/A   Scattered Clouds
7:55 AM 32.5 °F - 25.9 °F 76% 30.36 in 10.0 mi Calm Calm - N/A   Scattered Clouds
8:15 AM 33.4 °F 30.4 °F 26.2 °F 75% 30.36 in 10.0 mi ENE 3.5 mph - N/A   Clear
8:35 AM 33.8 °F 29.6 °F 25.5 °F 72% 30.37 in 10.0 mi East 4.6 mph - N/A   Clear
8:55 AM 35.2 °F 30.3 °F 24.6 °F 65% 30.36 in 10.0 mi ESE 5.8 mph - N/A   Clear
9:15 AM 36.7 °F 29.9 °F 23.7 °F 59% 30.36 in 10.0 mi East 9.2 mph - N/A   Clear
9:35 AM 37.8 °F 32.5 °F 23.7 °F 57% 30.36 in 10.0 mi East 6.9 mph - N/A   Clear
9:55 AM 38.7 °F 33.6 °F 24.1 °F 56% 30.37 in 10.0 mi ESE 6.9 mph - N/A   Clear
10:15 AM 39.2 °F 32.5 °F 23.7 °F 54% 30.37 in 10.0 mi SE 10.4 mph - N/A   Clear
10:35 AM 40.1 °F 33.6 °F 22.8 °F 50% 30.37 in 10.0 mi ESE 10.4 mph - N/A   Clear
10:55 AM 40.5 °F 33.6 °F 23.7 °F 51% 30.37 in 10.0 mi SE 11.5 mph - N/A   Clear
11:15 AM 40.5 °F 33.6 °F 25.2 °F 54% 30.36 in 10.0 mi ESE 11.5 mph - N/A   Clear
11:35 AM 41.2 °F 35.0 °F 25.2 °F 53% 30.36 in 10.0 mi East 10.4 mph - N/A   Clear
11:55 AM 41.9 °F 35.4 °F 25.9 °F 53% 30.36 in 10.0 mi ESE 11.5 mph - N/A   Clear
12:15 PM 42.6 °F 37.2 °F 26.8 °F 54% 30.36 in 10.0 mi ESE 9.2 mph - N/A   Clear
12:35 PM 43.0 °F 37.2 °F 27.3 °F 54% 30.35 in 10.0 mi SE 10.4 mph - N/A   Clear
12:55 PM 43.7 °F 38.6 °F 27.1 °F 52% 30.35 in 10.0 mi ESE 9.2 mph - N/A   Clear
1:15 PM 44.2 °F 39.7 °F 28.4 °F 54% 30.34 in 10.0 mi ESE 8.1 mph - N/A   Clear
1:35 PM 45.0 °F 40.1 °F 29.7 °F 55% 30.34 in 10.0 mi East 9.2 mph - N/A   Clear
1:55 PM 45.7 °F 41.0 °F 29.3 °F 53% 30.33 in 10.0 mi ESE 9.2 mph - N/A   Clear
2:15 PM 45.9 °F 40.0 °F 29.7 °F 53% 30.32 in 10.0 mi ESE 12.7 mph - N/A   Clear
2:35 PM 46.2 °F 40.8 °F 29.8 °F 53% 30.31 in 10.0 mi ESE 11.5 mph - N/A   Clear
2:55 PM 46.8 °F - 30.9 °F 54% 30.30 in 10.0 mi ESE 9.2 mph - N/A   Clear
3:15 PM 46.9 °F - 32.4 °F 57% 30.30 in 10.0 mi ESE 11.5 mph - N/A   Scattered Clouds
3:35 PM 46.6 °F - 32.2 °F 57% 30.30 in 10.0 mi ESE 9.2 mph - N/A   Scattered Clouds
3:55 PM 47.7 °F - 32.7 °F 56% 30.28 in 10.0 mi ESE 9.2 mph - N/A   Mostly Cloudy
4:15 PM 47.5 °F - 33.3 °F 58% 30.28 in 10.0 mi ESE 8.1 mph - N/A   Scattered Clouds
4:35 PM 47.1 °F - 32.4 °F 57% 30.28 in 10.0 mi ESE 10.4 mph - N/A   Clear
4:55 PM 46.6 °F - 33.1 °F 59% 30.27 in 10.0 mi ESE 8.1 mph - N/A   Scattered Clouds
5:15 PM 47.5 °F - 32.5 °F 56% 30.27 in 10.0 mi East 6.9 mph - N/A   Scattered Clouds
5:35 PM 47.3 °F - 32.0 °F 55% 30.27 in 10.0 mi East 5.8 mph - N/A   Mostly Cloudy
5:55 PM 47.5 °F - 32.2 °F 55% 30.27 in 10.0 mi East 8.1 mph - N/A   Mostly Cloudy
6:15 PM 46.4 °F 42.9 °F 32.4 °F 58% 30.27 in 10.0 mi East 6.9 mph - N/A   Scattered Clouds
6:35 PM 46.0 °F 42.5 °F 32.2 °F 58% 30.27 in 10.0 mi East 6.9 mph - N/A   Clear
6:55 PM 45.7 °F 42.7 °F 32.0 °F 59% 30.27 in 10.0 mi East 5.8 mph - N/A   Mostly Cloudy
7:15 PM 45.0 °F 41.8 °F 32.0 °F 60% 30.27 in 10.0 mi ENE 5.8 mph - N/A   Mostly Cloudy
7:35 PM 44.1 °F 40.8 °F 32.0 °F 63% 30.27 in 10.0 mi ENE 5.8 mph - N/A   Mostly Cloudy
7:55 PM 42.4 °F 38.1 °F 32.7 °F 68% 30.27 in 10.0 mi ENE 6.9 mph - N/A   Scattered Clouds
8:15 PM 41.9 °F 37.5 °F 32.7 °F 70% 30.27 in 10.0 mi NE 6.9 mph - N/A   Scattered Clouds
8:35 PM 41.0 °F 37.1 °F 32.4 °F 71% 30.27 in 10.0 mi ENE 5.8 mph - N/A   Mostly Cloudy
8:55 PM 40.6 °F 36.7 °F 32.5 °F 73% 30.28 in 10.0 mi ENE 5.8 mph - N/A   Mostly Cloudy
9:15 PM 40.1 °F 36.1 °F 32.9 °F 75% 30.28 in 10.0 mi NE 5.8 mph - N/A   Scattered Clouds
9:35 PM 40.3 °F 36.3 °F 33.1 °F 75% 30.28 in 10.0 mi NE 5.8 mph - N/A   Scattered Clouds
9:55 PM 40.1 °F 36.1 °F 33.3 °F 77% 30.28 in 10.0 mi ENE 5.8 mph - N/A   Scattered Clouds
10:15 PM 40.1 °F 36.1 °F 33.1 °F 76% 30.27 in 10.0 mi ENE 5.8 mph - N/A   Scattered Clouds
10:35 PM 40.1 °F 36.1 °F 32.9 °F 75% 30.27 in 10.0 mi ENE 5.8 mph - N/A   Clear
10:55 PM 39.9 °F 36.7 °F 32.9 °F 76% 30.28 in 10.0 mi ENE 4.6 mph - N/A   Scattered Clouds
11:15 PM 40.1 °F 36.1 °F 32.9 °F 75% 30.27 in 10.0 mi ENE 5.8 mph - N/A   Mostly Cloudy
11:35 PM 39.6 °F 35.4 °F 32.9 °F 77% 30.27 in 10.0 mi ENE 5.8 mph - N/A   Scattered Clouds
11:55 PM 39.2 °F 33.6 °F 32.4 °F 76% 30.27 in 10.0 mi ENE 8.1 mph - N/A   Mostly Cloudy